FENGYUN 1C DEB, 29875

Orbit data source: Space-Track

FENGYUN 1C DEB, 29875 is space debris in SSO originally from a launch on Mon, 10 May 1999 UTC launched from the Taiyaun Space Center, China (TSC). Fengyun 1C debris stems from the Chinese weather satellite Fengyun-1C, which was intentionally destroyed by a Chinese anti-satellite missile in 2007. This event dramatically increased the amount of space debris, with thousands of trackable fragments posing hazards to satellites and human spaceflight. The Fengyun 1C debris cloud has become a focal point in discussions about space sustainability and the need for international regulations to prevent the creation of new debris.

Loading next visibility...
Identifier
29875, 1999-025FV
Orbit
SSO
Country
Flag of CNCN / PRC
Related business
Manufacturer
Unknown
Mission
Spacecraft
Bus & Motor
Unknown
Mass
Unknown
Launch date (UTC)
1999-05-10 (27 years ago)
Launch vehicle
Unknown
Launch site
Taiyaun Space Center, China (TSC)
Object type
Payload
Rocket body
Debris
Shape & HBR
Unknown shape, 0.1 m
Radar Cross Section
Medium (>0.1 m² and <1 m²)

Expand to show TLE details & history
Last TLE update: 12 hours ago

TLE from 12 hours ago
0 FENGYUN 1C DEB
1 29875U 99025FV  26256.35967869  .00000037  00000-0  32528-4 0  9994
2 29875  98.3668 300.5537 0081684 338.6355  82.0237 14.24932363 22267
Epoch: 2026-09-13T08:37Z
TLE epoch observation values (Epoch: 2026-09-13T08:37:56.238Z)
Latitude
60.57579°
Longitude
163.68091°
Altitude
811.348 km
Speed
7.457 km/s
True Right ascension
19h 02m 04s
True Declination
60° 25' 46"
Sunlit
Object was in daylight at epoch
Visualization orbit readout
Latitude
Unknown
Longitude
Unknown
Altitude
Unknown
Speed
Unknown
Apparent Right ascension
Unknown
Apparent Declination
Unknown
Sunlit
N/A
Visualization observer readout
Local Sidereal Time
13:35:29
Azimuth
Unknown
Elevation
Unknown
Doppler factor
Unknown
Orbital elements
Apogee altitude
864.537 km
Perigee altitude
747.174 km
Semi-major axis
7,183.993 km
Eccentricity
0.00817
Inclination
98.3668°
RAAN
300.5537°
Arg. of periapsis
338.6355°
True anomaly
82.95195°
Mean anomaly
82.0237°
Eccentric anomaly
82.4877°
Mean motion
3.56446 °/min
Orbital period
101 mins
BSTAR
0.000032528
Loading maneuver chart data...
Computing Atmospheric mass density...

Documentation

Showing up to 5 results
|